Weather in Sudbishchi

Russia / Oryol Oblast     52°56′57″N   37°38′17″E
temp.,
°C
wind,
m/s
gust,
m/s
humid.,
%
clouds,
%
prec.,
mm/h
press.,
hPa
HPBL,
m
9 may, sun
sun900:00+8ssw2598100 0.0 1004201
03:00+6wsw5896100 0.1 1005397
06:00+4wnw71197100 0.7 1008769
09:00+3nw81396100 2.0 1011755
12:00+5nw81288100 0.2 10131039
15:00+7nw91275100 0.6 10161318
18:00+7nw8137283 0.2 10181365
21:00+5wnw4118090 0.2 1020307
10 may, mon
mon1000:00+4nw614815 0.0 1021336
03:00+3nnw513845 0.0 1023303
06:00+4nnw514780 0.0 1025402
09:00+8n813630 0.0 10251307
12:00+11nne911505 0.0 10241580
15:00+12nne9125398 0.0 10231532
18:00+11nne81462100 0.0 10231213
21:00+10nne81562100 0.0 1023770
11 may, tue
tue1100:00+9nne81770100 0.0 1023612
03:00+8nne7178090 0.0 1023517
06:00+8nne8188478 0.0 1022516
09:00+11ne8168495 0.0 1022596
12:00+14ene61179100 0.0 10221055
15:00+11ese51086100 0.2 1024556
18:00+14e510680 0.0 10241310
21:00+9se31085100 0.0 1025260
12 may, wed
wed1200:00+8se2386100 0.0 102659
03:00+8ene2382100 0.0 102585
06:00+8ene389253 0.0 1024293
09:00+12e587291 0.0 1023773
12:00+15e6759100 0.0 10221469
15:00+15e796790 0.4 10201356
18:00+13ese598116 1.4 1020654
21:00+10ese398944 1.8 1019189
13 may, thu
thu1300:00+9ese5139182 0.0 1020292
03:00+10se4119198 0.0 1020277
06:00+10se399266 0.0 1020245
09:00+15se58715 0.0 1020579
12:00+18se575832 0.0 10191342
15:00+19se565515 0.0 10181492
18:00+19se366770 0.0 1017280
21:00+15ese3378100 0.0 101728